TimeCDT,TemperatureF,Dew PointF,Humidity,Sea Level PressureIn,VisibilityMPH,Wind Direction,Wind SpeedMPH,Gust SpeedMPH,PrecipitationIn,Events,Conditions,WindDirDegrees,DateUTC
12:15 AM,78.8,75.4,89,29.95,10.0,ESE,3.5,-,N/A,Thunderstorm,Overcast,110,2013-09-29 05:15:00
12:35 AM,78.8,75.4,89,29.96,10.0,SSE,3.5,-,N/A,Rain-Thunderstorm,Light Thunderstorms and Rain,150,2013-09-29 05:35:00
12:55 AM,78.3,75.6,91,29.97,2.0,South,12.7,17.3,0.23,Rain-Thunderstorm,Heavy Thunderstorms and Rain,180,2013-09-29 05:55:00
1:15 AM,74.1,71.6,92,29.98,1.2,SW,16.1,21.9,0.66,Rain-Thunderstorm,Heavy Thunderstorms and Rain,230,2013-09-29 06:15:00
1:35 AM,72.5,70.7,94,29.94,2.0,West,10.4,-,1.37,Rain-Thunderstorm,Heavy Thunderstorms and Rain,280,2013-09-29 06:35:00
1:55 AM,72.1,70.5,95,29.97,5.0,NW,5.8,-,1.51,Rain-Thunderstorm,Light Thunderstorms and Rain,320,2013-09-29 06:55:00
2:15 AM,72.5,70.7,94,29.96,7.0,Calm,Calm,-,0.02,Rain-Thunderstorm,Thunderstorms and Rain,0,2013-09-29 07:15:00
2:35 AM,72.5,70.9,95,29.96,7.0,WNW,3.5,-,0.07,Rain-Thunderstorm,Rain,300,2013-09-29 07:35:00
2:55 AM,72.7,71.2,95,29.97,7.0,Calm,Calm,-,0.11,Rain,Rain,0,2013-09-29 07:55:00
3:15 AM,72.9,71.6,96,29.97,5.0,WNW,3.5,-,0.06,Rain,Heavy Rain,290,2013-09-29 08:15:00
3:35 AM,72.7,71.2,95,29.96,-9999.0,NW,5.8,-,N/A,Thunderstorm,Thunderstorm,320,2013-09-29 08:35:00
3:55 AM,-9999,-9999,N/A,29.96,10.0,NNW,8.1,-,0.03,Rain-Thunderstorm,Thunderstorms and Rain,330,2013-09-29 08:55:00
4:15 AM,-9999,-9999,N/A,29.96,7.0,WNW,4.6,-,0.04,Rain-Thunderstorm,Thunderstorms and Rain,300,2013-09-29 09:15:00
4:35 AM,-9999,-9999,N/A,29.96,5.0,North,3.5,-,0.14,Rain,Heavy Rain,350,2013-09-29 09:35:00
4:55 AM,-9999,-9999,N/A,29.97,1.0,NNW,6.9,-,0.35,Rain,Heavy Rain,340,2013-09-29 09:55:00
5:15 AM,-9999,-9999,N/A,29.98,4.0,North,8.1,-,0.21,Rain,Heavy Rain,350,2013-09-29 10:15:00
5:35 AM,-9999,-9999,N/A,29.98,7.0,NNE,8.1,-,0.25,Rain-Thunderstorm,Rain,20,2013-09-29 10:35:00
5:55 AM,-9999,-9999,N/A,29.98,7.0,NNE,8.1,-,0.30,Rain-Thunderstorm,Rain,30,2013-09-29 10:55:00
6:15 AM,-9999,-9999,N/A,29.98,7.0,NNE,6.9,-,0.04,Rain,Rain,30,2013-09-29 11:15:00
6:35 AM,-9999,-9999,N/A,29.99,10.0,NNE,9.2,-,0.08,Rain,Rain,30,2013-09-29 11:35:00
6:55 AM,-9999,-9999,N/A,29.99,10.0,NE,6.9,-,0.08,Rain,Light Rain,40,2013-09-29 11:55:00
7:15 AM,-9999,-9999,N/A,29.99,10.0,NE,8.1,-,N/A,,Overcast,40,2013-09-29 12:15:00
7:35 AM,-9999,-9999,N/A,29.98,10.0,NE,5.8,-,N/A,,Mostly Cloudy,50,2013-09-29 12:35:00
7:55 AM,-9999,-9999,N/A,29.98,10.0,Calm,Calm,-,N/A,,Mostly Cloudy,0,2013-09-29 12:55:00
8:15 AM,-9999,-9999,N/A,29.98,10.0,Calm,Calm,-,N/A,,Scattered Clouds,0,2013-09-29 13:15:00
8:35 AM,-9999,-9999,N/A,29.99,10.0,NW,4.6,-,N/A,,Mostly Cloudy,320,2013-09-29 13:35:00
8:55 AM,-9999,-9999,N/A,30.00,10.0,NNW,3.5,-,N/A,,Overcast,330,2013-09-29 13:55:00
9:15 AM,-9999,-9999,N/A,30.01,10.0,Calm,Calm,-,N/A,,Overcast,0,2013-09-29 14:15:00
9:35 AM,-9999,-9999,N/A,30.02,10.0,Calm,Calm,-,N/A,,Overcast,0,2013-09-29 14:35:00
9:55 AM,-9999,-9999,N/A,30.03,10.0,NNE,5.8,-,N/A,,Overcast,20,2013-09-29 14:55:00
10:15 AM,-9999,-9999,N/A,30.03,10.0,North,4.6,-,N/A,,Overcast,10,2013-09-29 15:15:00
10:35 AM,-9999,-9999,N/A,30.04,10.0,North,5.8,-,N/A,,Overcast,360,2013-09-29 15:35:00
10:55 AM,-9999,-9999,N/A,30.04,10.0,North,6.9,-,N/A,,Overcast,10,2013-09-29 15:55:00
11:15 AM,-9999,-9999,N/A,30.03,10.0,North,8.1,-,N/A,,Overcast,360,2013-09-29 16:15:00
11:35 AM,-9999,-9999,N/A,30.03,7.0,North,6.9,-,N/A,,Overcast,360,2013-09-29 16:35:00
11:55 AM,-9999,-9999,N/A,30.03,7.0,NNE,8.1,-,N/A,,Overcast,30,2013-09-29 16:55:00
12:15 PM,-9999,-9999,N/A,30.03,5.0,NNE,6.9,-,N/A,,Haze,30,2013-09-29 17:15:00
12:35 PM,-9999,-9999,N/A,30.03,7.0,NNE,6.9,-,N/A,,Overcast,30,2013-09-29 17:35:00
12:55 PM,-9999,-9999,N/A,30.01,10.0,NNE,6.9,-,N/A,,Overcast,30,2013-09-29 17:55:00
1:15 PM,-9999,-9999,N/A,30.00,10.0,North,8.1,-,N/A,,Overcast,10,2013-09-29 18:15:00
1:35 PM,-9999,-9999,N/A,30.00,10.0,North,8.1,-,N/A,,Overcast,350,2013-09-29 18:35:00
1:55 PM,75.2,68.4,79,29.98,10.0,North,6.9,-,N/A,,Overcast,350,2013-09-29 18:55:00
2:15 PM,75.9,68.4,77,29.97,10.0,NNE,6.9,-,N/A,,Overcast,20,2013-09-29 19:15:00
2:35 PM,78.1,69.3,74,29.96,10.0,NNE,6.9,-,N/A,,Overcast,20,2013-09-29 19:35:00
2:55 PM,79.5,69.8,72,29.95,10.0,North,4.6,-,N/A,,Mostly Cloudy,10,2013-09-29 19:55:00
3:15 PM,78.3,68.7,72,29.94,10.0,North,3.5,-,N/A,,Mostly Cloudy,360,2013-09-29 20:15:00
3:35 PM,78.3,69.1,73,29.94,10.0,North,6.9,-,N/A,,Overcast,10,2013-09-29 20:35:00
3:55 PM,78.4,68.4,71,29.93,10.0,North,4.6,-,N/A,,Overcast,350,2013-09-29 20:55:00
4:15 PM,79.2,68.5,70,29.93,10.0,North,8.1,-,N/A,,Overcast,350,2013-09-29 21:15:00
4:35 PM,79.2,68.2,69,29.93,10.0,NE,6.9,-,N/A,,Overcast,50,2013-09-29 21:35:00
4:55 PM,78.8,68.0,69,29.93,10.0,NNE,4.6,-,N/A,,Overcast,30,2013-09-29 21:55:00
5:15 PM,78.8,68.2,70,29.93,10.0,NNE,4.6,-,N/A,,Overcast,20,2013-09-29 22:15:00
5:35 PM,78.8,67.6,68,29.93,10.0,NNE,8.1,-,N/A,,Overcast,30,2013-09-29 22:35:00
5:55 PM,78.4,67.6,69,29.93,10.0,NE,8.1,-,N/A,,Overcast,40,2013-09-29 22:55:00
6:15 PM,78.3,68.0,71,29.93,10.0,ENE,6.9,-,N/A,,Overcast,60,2013-09-29 23:15:00
6:35 PM,77.5,67.8,72,29.93,10.0,NNE,5.8,-,N/A,,Overcast,30,2013-09-29 23:35:00
6:55 PM,77.0,67.6,73,29.93,10.0,NNE,6.9,-,N/A,,Overcast,30,2013-09-29 23:55:00
7:15 PM,76.6,67.5,73,29.94,10.0,NE,5.8,-,N/A,,Overcast,40,2013-09-30 00:15:00
7:35 PM,76.3,67.5,74,29.94,10.0,NE,5.8,-,N/A,,Overcast,40,2013-09-30 00:35:00
7:55 PM,75.7,67.8,76,29.94,10.0,ENE,4.6,-,N/A,,Overcast,60,2013-09-30 00:55:00
8:15 PM,75.0,67.6,78,29.94,10.0,ENE,3.5,-,N/A,,Scattered Clouds,70,2013-09-30 01:15:00
8:35 PM,74.3,67.6,80,29.95,10.0,Calm,Calm,-,N/A,,Clear,0,2013-09-30 01:35:00
8:55 PM,73.4,67.6,82,29.96,10.0,Calm,Calm,-,N/A,,Clear,0,2013-09-30 01:55:00
9:15 PM,73.2,67.6,83,29.96,10.0,Calm,Calm,-,N/A,,Mostly Cloudy,0,2013-09-30 02:15:00
9:35 PM,73.0,67.5,83,29.96,10.0,Calm,Calm,-,N/A,,Overcast,0,2013-09-30 02:35:00
9:55 PM,72.7,67.3,83,29.96,10.0,NNE,3.5,-,N/A,,Scattered Clouds,20,2013-09-30 02:55:00
10:15 PM,72.3,67.1,84,29.97,10.0,NNE,3.5,-,N/A,,Mostly Cloudy,30,2013-09-30 03:15:00
10:35 PM,72.0,67.3,85,29.97,10.0,NNE,3.5,-,N/A,,Overcast,30,2013-09-30 03:35:00
10:55 PM,71.6,67.5,87,29.97,10.0,Calm,Calm,-,N/A,,Scattered Clouds,0,2013-09-30 03:55:00
11:15 PM,71.6,67.5,87,29.97,10.0,Calm,Calm,-,N/A,,Clear,0,2013-09-30 04:15:00
11:35 PM,71.2,67.5,88,29.97,10.0,Calm,Calm,-,N/A,,Scattered Clouds,0,2013-09-30 04:35:00
11:55 PM,71.2,68.0,89,29.97,10.0,Calm,Calm,-,N/A,,Overcast,0,2013-09-30 04:55:00